Fremont, NE

6:34 PM CDT on September 30, 2016 (GMT -0500)
Fremont Municipal

Weather History for KFET - November, 2010

Change the Weather History Date:

Sunday, November 7, 2010

  Actual Average Record
Temperature  
Mean Temperature 58 °F -  
Max Temperature 73 °F 53 °F 79 °F (1949)
Min Temperature 44 °F 31 °F -2 °F (1991)
Degree Days  
Heating Degree Days 6    
Growing Degree Days 8 (Base 50)    
Moisture  
Dew Point 32 °F    
Average Humidity 42    
Maximum Humidity 64    
Minimum Humidity 22    
Precipitation  
Precipitation 0.00 in - - ()
Sea Level Pressure  
Sea Level Pressure 29.98 in    
Wind  
Wind Speed 8 mph (SSE)    
Max Wind Speed 16 mph    
Max Gust Speed 24 mph    
Visibility 10 miles    
Events      
Averages and records for this station are not official NWS values.
T = Trace of Precipitation, MM = Missing Value Source: NWS Daily Summary

Daily Weather History Graph

Daily Weather History Graph

Search for Another Location

Airport or City:

Trip Planner

Search our weather history database for the weather conditions in past years. The results will help you decide how hot, cold, wet, or windy it might be!

Date:

Astronomy

Nov. 07, 2010 Rise Set
Actual Time 7:04 AM CST 5:14 PM CST
Civil Twilight 6:35 AM CST 5:43 PM CST
Nautical Twilight 6:02 AM CST 6:16 PM CST
Astronomical Twilight 5:30 AM CST 6:48 PM CST
Moon 8:54 AM CST (11/7) 6:11 PM CST (11/7)
Length of Visible Light 11h 07m
Length of Day
10h 09m
Waxing Crescent, 3% of the Moon is Illuminated
Nov 7
Waxing Crescent
Nov 13
First Quarter
Nov 21
Full
Nov 28
Last Quarter
Dec 5
New

Hourly Weather History & Observations

Time (CST) Temp. Windchill Dew Point Humidity Pressure Visibility Wind Dir Wind Speed Gust Speed Precip Events Conditions
12:10 AM 49.6 °F - 29.3 °F 46% 30.06 in 10.0 mi SE 5.8 mph - N/A   Clear
12:30 AM 49.1 °F - 29.8 °F 47% 30.06 in 10.0 mi SE 5.8 mph - N/A   Clear
12:50 AM 49.1 °F - 30.0 °F 48% 30.06 in 10.0 mi SE 4.6 mph - N/A   Clear
1:10 AM 47.5 °F - 30.2 °F 51% 30.06 in 10.0 mi SSE 4.6 mph - N/A   Clear
1:30 AM 48.2 °F - 30.2 °F 50% 30.06 in 10.0 mi SE 3.5 mph - N/A   Clear
1:50 AM 48.0 °F - 30.2 °F 50% 30.05 in 10.0 mi SSE 4.6 mph - N/A   Clear
1:10 AM 47.7 °F - 30.6 °F 52% 30.05 in 10.0 mi SSE 4.6 mph - N/A   Clear
1:30 AM 46.9 °F - 30.7 °F 53% 30.05 in 10.0 mi SSE 4.6 mph - N/A   Clear
1:50 AM 47.1 °F - 31.1 °F 54% 30.05 in 10.0 mi SSE 5.8 mph - N/A   Clear
2:10 AM 46.4 °F 43.5 °F 31.1 °F 55% 30.04 in 10.0 mi SSE 5.8 mph - N/A   Clear
2:30 AM 46.4 °F 43.5 °F 31.1 °F 55% 30.04 in 10.0 mi SSE 5.8 mph - N/A   Clear
2:50 AM 46.6 °F - 31.5 °F 56% 30.04 in 10.0 mi SSE 6.9 mph - N/A   Clear
3:10 AM 46.6 °F - 31.6 °F 56% 30.04 in 10.0 mi South 5.8 mph - N/A   Clear
3:30 AM 46.6 °F - 32.0 °F 57% 30.04 in 10.0 mi SSE 6.9 mph - N/A   Clear
3:50 AM 45.7 °F 41.5 °F 32.0 °F 59% 30.04 in 10.0 mi SSE 8.1 mph - N/A   Clear
4:10 AM 45.5 °F 40.8 °F 32.0 °F 59% 30.03 in 10.0 mi SSE 9.2 mph - N/A   Clear
4:30 AM 45.0 °F 40.1 °F 32.0 °F 60% 30.03 in 10.0 mi SSE 9.2 mph - N/A   Clear
4:50 AM 45.0 °F 40.6 °F 32.0 °F 60% 30.03 in 10.0 mi South 8.1 mph - N/A   Clear
5:10 AM 44.4 °F 40.5 °F 32.2 °F 62% 30.03 in 10.0 mi SSE 6.9 mph - N/A   Clear
5:30 AM 44.1 °F 40.1 °F 32.5 °F 64% 30.03 in 10.0 mi SSE 6.9 mph - N/A   Clear
5:50 AM 44.8 °F 41.0 °F 32.7 °F 63% 30.02 in 10.0 mi SSE 6.9 mph - N/A   Clear
6:10 AM 45.5 °F 41.3 °F 32.9 °F 61% 30.02 in 10.0 mi South 8.1 mph - N/A   Clear
6:30 AM 46.4 °F 41.9 °F 32.9 °F 59% 30.02 in 10.0 mi South 9.2 mph - N/A   Clear
6:50 AM 45.7 °F 40.6 °F 32.9 °F 61% 30.02 in 10.0 mi South 10.4 mph - N/A   Clear
7:10 AM 45.5 °F 39.9 °F 32.9 °F 61% 30.02 in 10.0 mi South 11.5 mph - N/A   Clear
7:30 AM 46.4 °F 41.5 °F 33.1 °F 60% 30.02 in 10.0 mi South 10.4 mph - N/A   Clear
8:30 AM 50.2 °F - 33.6 °F 53% 30.02 in 10.0 mi South 12.7 mph - N/A   Clear
8:50 AM 51.8 °F - 33.3 °F 49% 30.02 in 10.0 mi South 11.5 mph - N/A   Clear
9:10 AM 52.9 °F - 33.6 °F 48% 30.02 in 10.0 mi South 11.5 mph - N/A   Clear
9:30 AM 53.8 °F - 34.0 °F 47% 30.02 in 10.0 mi South 10.4 mph - N/A   Clear
9:50 AM 55.6 °F - 34.7 °F 45% 30.02 in 10.0 mi South 12.7 mph - N/A   Clear
10:10 AM 58.6 °F - 33.3 °F 38% 30.02 in 10.0 mi SSW 13.8 mph 19.6 mph N/A   Clear
10:30 AM 59.4 °F - 32.5 °F 36% 30.02 in 10.0 mi South 12.7 mph 20.7 mph N/A   Clear
10:50 AM 61.7 °F - 32.5 °F 33% 30.01 in 10.0 mi South 16.1 mph - N/A   Clear
11:10 AM 62.4 °F - 32.0 °F 32% 30.01 in 10.0 mi South 10.4 mph - N/A   Clear
11:50 AM 64.4 °F - 32.2 °F 30% 29.98 in 10.0 mi South 12.7 mph - N/A   Clear
12:10 PM 65.5 °F - 32.2 °F 29% 29.97 in 10.0 mi South 13.8 mph 19.6 mph N/A   Clear
12:30 PM 66.7 °F - 32.9 °F 28% 29.96 in 10.0 mi South 10.4 mph - N/A   Clear
12:50 PM 68.4 °F - 32.9 °F 27% 29.94 in 10.0 mi South 9.2 mph 18.4 mph N/A   Clear
1:10 PM 69.1 °F - 32.4 °F 26% 29.93 in 10.0 mi South 16.1 mph 20.7 mph N/A   Clear
1:30 PM 70.0 °F - 32.2 °F 25% 29.92 in 10.0 mi South 15.0 mph 20.7 mph N/A   Clear
1:50 PM 70.9 °F - 32.4 °F 24% 29.91 in 10.0 mi South 15.0 mph 21.9 mph N/A   Clear
2:10 PM 72.1 °F - 32.2 °F 23% 29.90 in 10.0 mi SSE 13.8 mph - N/A   Clear
2:30 PM 72.5 °F - 32.0 °F 23% 29.89 in 10.0 mi SSE 11.5 mph 24.2 mph N/A   Clear
2:50 PM 72.7 °F - 32.2 °F 23% 29.88 in 10.0 mi SSE 15.0 mph 18.4 mph N/A   Clear
3:10 PM 73.6 °F - 32.2 °F 22% 29.87 in 10.0 mi SSE 11.5 mph 20.7 mph N/A   Clear
3:30 PM 73.4 °F - 32.2 °F 22% 29.87 in 10.0 mi South 16.1 mph 20.7 mph N/A   Clear
3:50 PM 72.7 °F - 32.0 °F 22% 29.86 in 10.0 mi SSE 12.7 mph 16.1 mph N/A   Clear
4:10 PM 72.5 °F - 32.4 °F 23% 29.86 in 10.0 mi SSE 15.0 mph 20.7 mph N/A   Clear
4:30 PM 71.2 °F - 32.0 °F 24% 29.85 in 10.0 mi SSE 15.0 mph 18.4 mph N/A   Clear
4:50 PM 69.8 °F - 32.7 °F 25% 29.85 in 10.0 mi SSE 12.7 mph - N/A   Clear
5:10 PM 68.9 °F - 32.2 °F 26% 29.85 in 10.0 mi SSE 12.7 mph - N/A   Clear
5:30 PM 68.0 °F - 32.0 °F 26% 29.84 in 10.0 mi SSE 15.0 mph 19.6 mph N/A   Clear
5:50 PM 66.6 °F - 32.0 °F 28% 29.84 in 10.0 mi SSE 11.5 mph - N/A   Clear
6:10 PM 65.3 °F - 31.8 °F 29% 29.85 in 10.0 mi SSE 11.5 mph - N/A   Clear
6:30 PM 65.3 °F - 30.9 °F 28% 29.85 in 10.0 mi SSE 11.5 mph - N/A   Clear
6:50 PM 65.3 °F - 29.8 °F 26% 29.85 in 10.0 mi SSE 13.8 mph 19.6 mph N/A   Clear
7:10 PM 65.5 °F - 28.4 °F 25% 29.85 in 10.0 mi SSE 12.7 mph 23.0 mph N/A   Clear
7:30 PM 64.8 °F - 28.4 °F 25% 29.84 in 10.0 mi SSE 13.8 mph 19.6 mph N/A   Clear
7:50 PM 63.1 °F - 28.4 °F 27% 29.84 in 10.0 mi SSE 12.7 mph 17.3 mph N/A   Clear
8:10 PM 62.4 °F - 28.2 °F 27% 29.84 in 10.0 mi SE 12.7 mph 18.4 mph N/A   Clear
8:30 PM 61.0 °F - 28.4 °F 29% 29.83 in 10.0 mi SSE 12.7 mph - N/A   Clear
8:50 PM 61.7 °F - 28.2 °F 28% 29.83 in 10.0 mi SSE 16.1 mph - N/A   Clear
9:10 PM 61.7 °F - 28.2 °F 28% 29.83 in 10.0 mi SSE 13.8 mph 20.7 mph N/A   Clear
9:30 PM 61.7 °F - 28.2 °F 28% 29.82 in 10.0 mi SSE 13.8 mph 21.9 mph N/A   Clear
9:50 PM 62.1 °F - 27.9 °F 27% 29.82 in 10.0 mi SSE 16.1 mph 23.0 mph N/A   Clear
10:30 PM 60.6 °F - 28.4 °F 29% 29.80 in 10.0 mi SSE 13.8 mph 21.9 mph N/A   Clear
10:50 PM 60.6 °F - 28.8 °F 30% 29.79 in 10.0 mi SSE 16.1 mph 21.9 mph N/A   Clear